CW2972 Weather Reports


time (UTC)temp
C
wind
direction
speed
KPH
gust
KPH
rain 1hr
cm
rain 24hr
cm
rain mn
cm
humidity
%
barometer
mb
20260906205803 30 33 4.8 11.3 0.00 2.84 0.00 72 1012.7
20260906205603 30 34 4.8 9.7 0.00 2.84 0.00 72 1012.7
20260906205403 30 33 4.8 9.7 0.00 2.84 0.00 70 1012.8
20260906205203 31 40 4.8 9.7 0.00 2.84 0.00 70 1012.8
20260906205003 31 38 4.8 9.7 0.00 2.84 0.00 70 1012.8
20260906204803 31 29 4.8 11.3 0.00 2.84 0.00 71 1012.8
20260906204603 30 34 4.8 11.3 0.00 2.84 0.00 72 1012.7
20260906204403 30 44 4.8 11.3 0.00 2.84 0.00 72 1012.6
20260906204203 30 46 4.8 11.3 0.00 2.84 0.00 72 1012.6
20260906204003 30 42 4.8 11.3 0.00 2.84 0.00 72 1012.7
20260906203803 30 47 4.8 9.7 0.00 2.84 0.00 72 1012.7
20260906203624 30 45 4.8 9.7 0.00 2.84 0.00 72 1012.7
20260906203424 30 42 4.8 9.7 0.00 2.84 0.00 72 1012.8
20260906203203 30 46 4.8 11.3 0.00 2.84 0.00 71 1012.8
20260906203003 30 44 4.8 11.3 0.00 2.84 0.00 71 1012.8
20260906202803 31 48 4.8 11.3 0.00 2.84 0.00 72 1012.9
20260906202603 31 54 4.8 11.3 0.00 2.84 0.00 72 1012.9
20260906202403 31 54 4.8 11.3 0.00 2.84 0.00 72 1012.8
20260906202203 31 44 4.8 11.3 0.00 2.84 0.00 72 1012.8
20260906202003 31 47 4.8 11.3 0.00 2.84 0.00 72 1012.9
20260906201803 30 43 4.8 11.3 0.00 2.84 0.00 73 1012.9
20260906201603 30 36 4.8 11.3 0.00 2.84 0.00 73 1013.0
20260906201403 31 33 4.8 9.7 0.00 2.84 0.00 72 1013.0
20260906201203 31 33 4.8 9.7 0.00 2.84 0.00 72 1013.0
20260906201003 31 35 4.8 9.7 0.00 2.84 0.00 73 1013.1
20260906200824 30 41 4.8 9.7 0.00 2.84 0.00 75 1013.0
20260906200603 30 38 4.8 9.7 0.00 2.84 0.00 74 1013.1
20260906200403 30 42 4.8 12.9 0.00 2.84 0.00 74 1013.1
20260906200203 30 42 3.2 12.9 0.00 2.84 0.00 73 1013.1
20260906200003 31 43 3.2 12.9 0.00 2.84 0.00 73 1013.1
20260906195803 31 39 3.2 12.9 0.00 2.84 0.00 74 1013.1
20260906195603 31 36 4.8 12.9 0.00 2.84 0.00 74 1013.0
20260906195403 30 35 4.8 9.7 0.00 2.84 0.00 73 1013.1
20260906195203 30 44 4.8 11.3 0.00 2.84 0.00 74 1013.1
20260906195003 30 45 4.8 11.3 0.00 2.84 0.00 73 1013.1
20260906194803 30 48 4.8 11.3 0.00 2.84 0.00 73 1013.1
20260906194603 31 41 4.8 12.9 0.00 2.84 0.00 72 1013.1
20260906194403 31 41 4.8 12.9 0.00 2.84 0.00 72 1013.2
20260906194203 31 36 4.8 12.9 0.00 2.84 0.00 74 1013.2
20260906194003 31 32 4.8 12.9 0.00 2.84 0.00 74 1013.2
20260906193803 31 35 4.8 12.9 0.00 2.84 0.00 75 1013.2
20260906193603 30 43 4.8 11.3 0.00 2.84 0.00 74 1013.2
20260906193424 31 42 4.8 11.3 0.00 2.84 0.00 74 1013.2
20260906193203 31 39 4.8 12.9 0.00 2.84 0.00 73 1013.2
20260906193003 31 40 4.8 12.9 0.00 2.84 0.00 74 1013.1
20260906192803 31 35 4.8 12.9 0.00 2.84 0.00 74 1013.1
20260906192603 31 37 4.8 12.9 0.00 2.84 0.00 74 1013.1
20260906192403 31 35 3.2 12.9 0.00 2.84 0.00 73 1013.2
20260906192203 31 36 3.2 12.9 0.00 2.84 0.00 73 1013.1
20260906192024 31 46 3.2 12.9 0.00 2.84 0.00 74 1013.1
20260906191824 31 55 3.2 12.9 0.00 2.84 0.00 73 1013.1
20260906191603 31 48 3.2 12.9 0.00 2.84 0.00 73 1013.1
20260906191403 31 50 3.2 12.9 0.00 2.84 0.00 73 1013.1
20260906191203 31 49 3.2 12.9 0.00 2.84 0.00 72 1013.1
20260906191003 31 42 3.2 12.9 0.00 2.84 0.00 71 1013.2
20260906190803 31 35 3.2 12.9 0.00 2.84 0.00 72 1013.2
20260906190624 31 30 3.2 9.7 0.00 2.84 0.00 72 1013.1
20260906190403 31 22 3.2 9.7 0.00 2.84 0.00 71 1013.2
20260906190203 31 26 3.2 12.9 0.00 2.84 0.00 71 1013.1
20260906190003 31 39 3.2 12.9 0.00 2.84 0.00 73 1013.2
20260906185803 31 34 3.2 12.9 0.00 2.84 0.00 72 1013.1
20260906185603 31 44 3.2 12.9 0.00 2.84 0.00 71 1013.2
20260906185403 31 50 3.2 12.9 0.00 2.84 0.00 72 1013.2
20260906185203 31 44 3.2 11.3 0.00 2.84 0.00 73 1013.2
20260906185003 31 43 3.2 11.3 0.00 2.84 0.00 72 1013.1
20260906184803 31 40 3.2 11.3 0.00 2.84 0.00 73 1013.2
20260906184624 31 41 3.2 11.3 0.00 2.84 0.00 72 1013.2
20260906184424 31 39 3.2 11.3 0.00 2.84 0.00 73 1013.1
20260906184203 31 36 3.2 11.3 0.00 2.84 0.00 72 1013.1
20260906184003 31 35 3.2 11.3 0.00 2.84 0.00 69 1013.0
20260906183803 31 42 3.2 9.7 0.00 2.84 0.00 72 1013.0
20260906183603 31 47 3.2 9.7 0.00 2.84 0.00 72 1013.0
20260906183403 31 40 3.2 9.7 0.00 2.84 0.00 71 1013.1
20260906183203 31 48 3.2 9.7 0.00 2.84 0.00 73 1013.1
20260906183003 31 48 3.2 9.7 0.00 2.84 0.00 72 1013.0
20260906182803 31 43 3.2 9.7 0.00 2.84 0.00 73 1013.0
20260906182624 31 37 3.2 9.7 0.00 2.84 0.00 74 1013.1
20260906182403 31 46 3.2 12.9 0.00 2.84 0.00 73 1013.0
20260906182203 31 44 3.2 12.9 0.00 2.84 0.00 73 1013.1
20260906182003 31 42 3.2 12.9 0.00 2.84 0.00 73 1013.2
20260906181803 31 48 3.2 12.9 0.00 2.84 0.00 73 1013.1
20260906181603 31 52 3.2 12.9 0.00 2.84 0.00 72 1013.2
20260906181403 31 53 3.2 8.0 0.00 2.84 0.00 74 1013.2
20260906181203 31 50 3.2 8.0 0.00 2.84 0.00 73 1013.1
20260906181003 31 48 4.8 8.0 0.00 2.84 0.00 72 1013.2
20260906180824 31 47 4.8 9.7 0.00 2.84 0.00 72 1013.2
20260906180603 31 43 4.8 9.7 0.00 2.84 0.00 73 1013.3
20260906180424 31 35 4.8 9.7 0.00 2.84 0.00 73 1013.3
20260906180203 31 32 3.2 9.7 0.00 2.84 0.00 74 1013.3
20260906180003 31 31 3.2 9.7 0.00 2.84 0.00 74 1013.3
20260906175824 31 25 3.2 9.7 0.00 2.84 0.00 75 1013.3
20260906175624 31 23 3.2 9.7 0.00 2.84 0.00 74 1013.4
20260906175403 31 24 3.2 9.7 0.00 2.84 0.00 74 1013.4
20260906175203 31 23 3.2 8.0 0.00 2.84 0.00 72 1013.4
20260906175003 31 27 3.2 8.0 0.00 2.84 0.00 73 1013.4
20260906174803 31 51 3.2 11.3 0.00 2.84 0.00 75 1013.5
20260906174603 31 50 3.2 11.3 0.00 2.84 0.00 74 1013.5
20260906174403 31 53 3.2 11.3 0.00 2.84 0.00 74 1013.5
20260906174204 31 54 3.2 11.3 0.00 2.84 0.00 74 1013.5
20260906174003 31 49 3.2 11.3 0.00 2.84 0.00 73 1013.6
20260906173803 31 52 3.2 11.3 0.00 2.84 0.00 74 1013.6
20260906173603 31 53 3.2 9.7 0.00 2.84 0.00 75 1013.6
20260906173424 31 46 3.2 9.7 0.00 2.84 0.00 75 1013.6
20260906173203 31 41 3.2 12.9 0.00 2.84 0.00 75 1013.6
20260906173003 31 39 3.2 12.9 0.00 2.84 0.00 77 1013.6
20260906172803 31 34 3.2 12.9 0.00 2.84 0.00 76 1013.6
20260906172603 31 32 1.6 12.9 0.00 2.84 0.00 75 1013.7
20260906172403 31 31 1.6 12.9 0.00 2.84 0.00 75 1013.7
20260906172203 31 32 1.6 11.3 0.00 2.84 0.00 75 1013.7
20260906172024 31 31 1.6 11.3 0.00 2.84 0.00 75 1013.6
20260906171803 31 22 1.6 8.0 0.00 2.84 0.00 75 1013.5
20260906171603 31 34 1.6 6.4 0.00 2.84 0.00 75 1013.5
20260906171403 31 42 1.6 6.4 0.00 2.84 0.00 75 1013.4
20260906171203 31 40 1.6 6.4 0.00 2.84 0.00 74 1013.5
20260906171003 31 42 1.6 6.4 0.00 2.84 0.00 74 1013.5
20260906170824 31 48 1.6 6.4 0.00 2.84 0.00 75 1013.5
20260906170603 31 50 1.6 8.0 0.00 2.84 0.00 76 1013.6
20260906170403 31 49 1.6 8.0 0.00 2.84 0.00 75 1013.6
20260906170224 31 50 1.6 8.0 0.00 2.84 0.00 77 1013.6
20260906170003 31 48 1.6 8.0 0.00 2.84 0.00 76 1013.6
20260906165824 31 44 1.6 8.0 0.00 2.84 0.00 75 1013.6
20260906165603 31 40 3.2 6.4 0.00 2.84 0.00 76 1013.6
20260906165403 31 45 3.2 6.4 0.00 2.84 0.00 77 1013.6
20260906165203 31 44 3.2 6.4 0.00 2.84 0.00 75 1013.7
20260906165003 31 45 3.2 6.4 0.00 2.84 0.00 75 1013.7
20260906164803 31 43 3.2 11.3 0.00 2.84 0.00 76 1013.7
20260906164603 31 42 3.2 11.3 0.00 2.84 0.00 77 1013.7
20260906164424 31 38 3.2 11.3 0.00 2.84 0.00 76 1013.7
20260906164203 31 39 1.6 11.3 0.00 2.84 0.00 75 1013.7
20260906164024 31 43 1.6 11.3 0.00 2.84 0.00 75 1013.8
20260906163803 31 48 3.2 9.7 0.00 2.84 0.00 76 1013.8
20260906163603 31 44 3.2 9.7 0.00 2.84 0.00 75 1013.8
20260906163403 31 49 3.2 8.0 0.00 2.84 0.00 75 1013.9
20260906163203 31 47 3.2 8.0 0.00 2.84 0.00 75 1013.9
20260906163024 31 43 3.2 8.0 0.00 2.84 0.00 76 1013.9
20260906162803 31 45 3.2 8.0 0.00 2.84 0.00 75 1013.9
20260906162603 30 51 3.2 8.0 0.00 2.84 0.00 75 1013.9
20260906162403 31 49 3.2 8.0 0.00 2.84 0.00 74 1013.9
20260906162203 31 49 3.2 8.0 0.00 2.84 0.00 74 1014.0
20260906162003 31 49 3.2 8.0 0.00 2.84 0.00 74 1014.0
20260906161803 31 51 3.2 8.0 0.00 2.84 0.00 74 1013.9
20260906161603 31 47 3.2 9.7 0.00 2.84 0.00 74 1014.0
20260906161403 31 47 1.6 11.3 0.00 2.84 0.00 74 1013.9
20260906161224 31 50 1.6 11.3 0.00 2.84 0.00 74 1014.0
20260906161003 31 49 1.6 11.3 0.00 2.84 0.00 75 1014.0
20260906160803 31 39 1.6 11.3 0.00 2.84 0.00 75 1014.0
20260906160603 31 41 1.6 11.3 0.00 2.84 0.00 75 1014.0
20260906160403 31 40 1.6 4.8 0.00 2.84 0.00 75 1013.9
20260906160203 31 38 1.6 4.8 0.00 2.84 0.00 74 1014.0
20260906160024 31 40 3.2 4.8 0.00 2.84 0.00 75 1014.0
20260906155824 31 46 3.2 4.8 0.00 2.84 0.00 75 1014.1
20260906155603 30 44 3.2 8.0 0.00 2.84 0.00 77 1014.1
20260906155403 30 38 3.2 8.0 0.00 2.84 0.00 76 1014.1
20260906155203 30 27 3.2 11.3 0.00 2.84 0.00 77 1014.1
20260906155003 30 19 3.2 11.3 0.00 2.84 0.00 76 1014.1
20260906154803 30 352 3.2 11.3 0.00 2.84 0.00 75 1014.0
20260906154603 30 353 3.2 11.3 0.00 2.84 0.00 76 1014.0
20260906154403 30 6 3.2 11.3 0.00 2.84 0.00 75 1014.0
20260906154203 30 30 3.2 9.7 0.00 2.84 0.00 75 1014.0
20260906154024 30 37 3.2 11.3 0.00 2.84 0.00 74 1014.0
20260906153803 30 46 3.2 11.3 0.00 2.84 0.00 76 1014.1
20260906153603 30 45 1.6 11.3 0.00 2.84 0.00 76 1014.1
20260906153403 30 37 1.6 11.3 0.00 2.84 0.00 75 1014.1
20260906153203 30 34 1.6 11.3 0.00 2.84 0.00 76 1014.1
20260906153003 30 30 1.6 8.0 0.00 2.84 0.00 75 1014.1
20260906152803 30 34 1.6 8.0 0.00 2.84 0.00 77 1014.1
20260906152603 30 39 1.6 8.0 0.00 2.84 0.00 77 1014.1
20260906152424 30 48 1.6 8.0 0.00 2.84 0.00 79 1014.1
20260906152224 30 58 1.6 8.0 0.00 2.84 0.00 79 1014.0
20260906152003 30 50 1.6 4.8 0.00 2.84 0.00 79 1014.1
20260906151824 30 53 1.6 4.8 0.00 2.84 0.00 80 1014.0
20260906151603 30 59 1.6 6.4 0.00 2.84 0.00 81 1014.0
20260906151403 29 62 1.6 6.4 0.00 2.84 0.00 81 1014.0
20260906151203 29 55 0.0 6.4 0.00 2.84 0.00 82 1014.0
20260906151003 29 50 0.0 6.4 0.00 2.84 0.00 81 1014.0
20260906150803 29 42 0.0 6.4 0.00 2.84 0.00 81 1014.1
20260906150624 29 10 0.0 6.4 0.00 2.84 0.00 81 1014.0
20260906150403 29 270 0.0 3.2 0.00 2.84 0.00 80 1014.0
20260906150203 29 72 0.0 3.2 0.00 2.84 0.00 84 1013.9
20260906150003 28 54 0.0 4.8 0.00 2.84 0.00 84 1013.9
20260906145824 28 49 0.0 4.8 0.00 2.84 0.00 84 1013.9
20260906145603 28 36 0.0 4.8 0.00 2.84 0.00 85 1013.9
20260906145403 28 37 0.0 4.8 0.00 2.84 0.00 85 1013.9
20260906145203 28 46 1.6 4.8 0.00 2.84 0.00 85 1013.9
20260906145003 28 49 1.6 3.2 0.00 2.84 0.00 86 1013.9
20260906144803 27 43 1.6 4.8 0.00 2.84 0.00 86 1013.9
20260906144603 27 47 1.6 4.8 0.00 2.84 0.00 87 1013.9
20260906144403 27 47 1.6 4.8 0.00 2.84 0.00 86 1013.9
20260906144203 27 45 1.6 6.4 0.00 2.84 0.00 87 1013.9
20260906144024 27 44 1.6 6.4 0.00 2.84 0.00 85 1014.0
20260906143803 27 46 1.6 6.4 0.00 2.84 0.00 87 1014.0
20260906143624 27 42 0.0 6.4 0.00 2.84 0.00 87 1014.1
20260906143403 27 43 0.0 6.4 0.00 2.84 0.00 87 1014.1
20260906143203 27 55 0.0 4.8 0.00 2.84 0.00 87 1014.1
20260906143003 27 57 0.0 4.8 0.00 2.84 0.00 87 1014.1
20260906142803 27 59 0.0 4.8 0.00 2.84 0.00 88 1014.1
20260906142624 27 78 0.0 4.8 0.00 2.84 0.00 88 1014.1
20260906142403 27 101 0.0 1.6 0.00 2.84 0.00 88 1014.1
20260906142203 27 84 0.0 1.6 0.00 2.84 0.00 90 1014.0
20260906142003 27 107 0.0 1.6 0.00 2.84 0.00 90 1014.1
20260906141803 27 104 0.0 1.6 0.00 2.84 0.00 89 1014.1
20260906141603 27 75 0.0 1.6 0.00 2.84 0.00 90 1014.1
20260906141403 26 75 0.0 1.6 0.00 2.84 0.00 90 1014.1
20260906141203 27 65 0.0 1.6 0.00 2.84 0.00 89 1014.1
20260906141003 27 60 0.0 1.6 0.00 2.84 0.00 90 1014.1
20260906140803 27 48 0.0 1.6 0.00 2.84 0.00 93 1014.1
20260906140603 26 43 0.0 1.6 0.00 2.84 0.00 94 1014.1
20260906140403 26 44 0.0 1.6 0.00 2.84 0.00 93 1014.1
20260906140203 26 44 0.0 1.6 0.00 2.84 0.00 92 1014.2
20260906140003 26 46 0.0 1.6 0.00 2.84 0.00 94 1014.2
20260906135803 26 46 0.0 1.6 0.00 2.84 0.00 95 1014.3
20260906135603 26 46 0.0 1.6 0.00 2.84 0.00 97 1014.2
20260906135424 26 46 0.0 1.6 0.00 2.84 0.00 97 1014.2
20260906135203 25 46 0.0 1.6 0.00 2.84 0.00 97 1014.3
20260906135003 25 46 0.0 1.6 0.00 2.84 0.00 96 1014.3
20260906134803 25 46 0.0 1.6 0.00 2.84 0.00 95 1014.3
20260906134603 25 0 0.0 0.0 0.00 2.84 0.00 96 1014.4
20260906134403 25 0 0.0 0.0 0.00 2.84 0.00 96 1014.4
20260906134203 25 0 0.0 0.0 0.00 2.84 0.00 96 1014.3
20260906134003 25 0 0.0 0.0 0.00 2.84 0.00 96 1014.4
20260906133803 25 0 0.0 0.0 0.00 2.84 0.00 96 1014.4
20260906133603 25 0 0.0 0.0 0.00 2.84 0.00 96 1014.4
20260906133403 25 0 0.0 0.0 0.00 2.84 0.00 97 1014.4
20260906133224 24 46 0.0 1.6 0.00 2.84 0.00 97 1014.4
20260906133003 24 46 0.0 1.6 0.00 2.84 0.00 98 1014.5
20260906132803 24 38 0.0 1.6 0.00 2.84 0.00 98 1014.5
20260906132603 24 31 0.0 1.6 0.00 2.84 0.00 98 1014.5
20260906132404 24 31 0.0 1.6 0.00 2.84 0.00 98 1014.5
20260906132224 24 29 0.0 1.6 0.00 2.84 0.00 98 1014.5
20260906132003 23 27 0.0 1.6 0.00 2.84 0.00 99 1014.5
20260906131803 23 27 0.0 1.6 0.00 2.84 0.00 98 1014.5
20260906131603 23 27 0.0 1.6 0.00 2.84 0.00 100 1014.5
20260906131403 23 27 0.0 1.6 0.00 2.84 0.00 100 1014.6
20260906131203 23 27 0.0 1.6 0.00 2.84 0.00 100 1014.6
20260906131003 23 27 0.0 1.6 0.00 2.84 0.00 100 1014.6
20260906130803 23 27 0.0 1.6 0.00 2.84 0.00 100 1014.6
20260906130603 23 27 0.0 1.6 0.00 2.84 0.00 100 1014.6
20260906130403 23 27 0.0 1.6 0.00 2.84 0.00 100 1014.6
20260906130203 23 27 0.0 1.6 0.00 2.84 0.00 100 1014.6
20260906130003 23 27 0.0 1.6 0.00 2.84 0.00 100 1014.5
20260906125824 23 27 0.0 1.6 0.00 2.84 0.00 100 1014.5
20260906125603 23 27 0.0 1.6 0.00 2.84 0.00 100 1014.5
20260906125424 23 27 0.0 1.6 0.00 2.84 0.00 100 1014.5
20260906125203 23 27 0.0 1.6 0.00 2.84 0.00 100 1014.6
20260906125003 23 30 0.0 1.6 0.00 2.84 0.00 100 1014.6
20260906124824 23 41 0.0 1.6 0.00 2.84 0.00 100 1014.6
20260906124603 22 41 0.0 1.6 0.00 2.84 0.00 100 1014.6
20260906124403 22 41 0.0 1.6 0.00 2.84 0.00 100 1014.6
20260906124203 22 42 0.0 1.6 0.00 2.84 0.00 100 1014.6
20260906124003 22 58 0.0 1.6 0.00 2.84 0.00 100 1014.6
20260906123803 22 60 0.0 1.6 0.00 2.84 0.00 100 1014.5
20260906123603 22 60 0.0 1.6 0.00 2.84 0.00 100 1014.6
20260906123403 22 60 0.0 1.6 0.00 2.84 0.00 100 1014.5
20260906123203 22 64 0.0 1.6 0.00 2.84 0.00 100 1014.5
20260906123003 22 64 0.0 1.6 0.00 2.84 0.00 100 1014.4
20260906122803 22 80 0.0 1.6 0.00 2.84 0.00 100 1014.4
20260906122603 22 99 0.0 1.6 0.00 2.84 0.00 100 1014.3
20260906122403 22 99 0.0 1.6 0.00 2.84 0.00 100 1014.3
20260906122203 22 0 0.0 0.0 0.00 2.84 0.00 100 1014.2
20260906122003 22 0 0.0 0.0 0.00 2.84 0.00 100 1014.2
20260906121824 22 0 0.0 0.0 0.00 2.84 0.00 100 1014.2
20260906121624 22 0 0.0 0.0 0.00 2.84 0.00 100 1014.1
20260906121403 22 99 0.0 1.6 0.00 2.84 0.00 100 1014.1
20260906121203 22 99 0.0 1.6 0.00 2.84 0.00 100 1014.1
20260906121003 22 99 0.0 1.6 0.00 2.84 0.00 100 1014.0
20260906120824 22 99 0.0 1.6 0.00 2.84 0.00 100 1014.0
20260906120624 22 99 0.0 1.6 0.00 2.84 0.00 100 1014.0
20260906120424 22 0 0.0 0.0 0.00 2.84 0.00 100 1014.0
20260906120203 22 0 0.0 0.0 0.00 2.84 0.00 100 1014.0
20260906120003 22 0 0.0 0.0 0.00 2.84 0.00 100 1014.0
20260906115803 22 0 0.0 0.0 0.00 2.84 0.00 100 1013.9
20260906115603 22 0 0.0 0.0 0.00 2.84 0.00 100 1013.9
20260906115424 22 0 0.0 0.0 0.00 2.84 0.00 100 1014.0
20260906115203 22 0 0.0 0.0 0.00 2.84 0.00 100 1013.9
20260906115003 22 0 0.0 0.0 0.00 2.84 0.00 100 1013.9
20260906114803 22 0 0.0 0.0 0.00 2.84 0.00 100 1013.9
20260906114603 22 0 0.0 0.0 0.00 2.84 0.00 100 1013.9
20260906114403 22 0 0.0 0.0 0.00 2.84 0.00 100 1013.9
20260906114203 22 0 0.0 0.0 0.00 2.84 0.00 100 1013.8
20260906114003 22 0 0.0 0.0 0.00 2.84 0.00 100 1013.9
20260906113824 22 0 0.0 0.0 0.00 2.84 0.00 100 1013.8
20260906113603 21 0 0.0 0.0 0.00 2.84 0.00 100 1013.8
20260906113403 22 100 0.0 1.6 0.00 2.84 0.00 100 1013.7
20260906113203 21 100 0.0 1.6 0.00 2.84 0.00 100 1013.7
20260906113003 21 100 0.0 1.6 0.00 2.84 0.00 100 1013.7
20260906112803 21 100 0.0 1.6 0.00 2.84 0.00 100 1013.6
20260906112603 21 100 0.0 1.6 0.00 2.84 0.00 100 1013.6
20260906112403 21 0 0.0 0.0 0.00 2.84 0.00 100 1013.6
20260906112203 21 0 0.0 0.0 0.00 2.84 0.00 100 1013.6
20260906112003 21 0 0.0 0.0 0.00 2.84 0.00 100 1013.6
20260906111803 21 0 0.0 0.0 0.00 2.84 0.00 100 1013.5
20260906111603 21 100 0.0 1.6 0.00 2.84 0.00 100 1013.5
20260906111403 21 100 0.0 1.6 0.00 2.84 0.00 100 1013.5
20260906111203 21 100 0.0 1.6 0.00 2.84 0.00 100 1013.5
20260906111003 21 100 0.0 1.6 0.00 2.84 0.00 100 1013.5
20260906110803 21 100 0.0 1.6 0.00 2.84 0.00 100 1013.5
20260906110603 21 101 0.0 1.6 0.00 2.84 0.00 100 1013.5
20260906110403 21 0 0.0 0.0 0.00 2.84 0.00 100 1013.5
20260906110203 21 0 0.0 0.0 0.00 2.84 0.00 100 1013.5
20260906110003 21 0 0.0 0.0 0.00 2.84 0.00 100 1013.5
20260906105803 21 0 0.0 0.0 0.00 2.84 0.00 100 1013.4
20260906105603 21 0 0.0 0.0 0.00 2.84 0.00 100 1013.4
20260906105403 21 0 0.0 0.0 0.00 2.84 0.00 100 1013.4
20260906105203 21 0 0.0 0.0 0.00 2.84 0.00 100 1013.4
20260906105003 21 0 0.0 0.0 0.00 2.84 0.00 100 1013.4
20260906104824 21 0 0.0 0.0 0.00 2.84 0.00 100 1013.4
20260906104603 21 100 0.0 1.6 0.00 2.84 0.00 100 1013.4
20260906104403 21 100 0.0 1.6 0.00 2.84 0.00 100 1013.4
20260906104203 21 100 0.0 1.6 0.00 2.84 0.00 100 1013.4
20260906104003 21 100 0.0 1.6 0.00 2.84 0.00 100 1013.4
20260906103803 21 100 0.0 1.6 0.00 2.84 0.00 100 1013.3
20260906103624 21 99 0.0 1.6 0.00 2.84 0.00 100 1013.4
20260906103403 21 0 0.0 0.0 0.00 2.84 0.00 100 1013.3
20260906103203 21 0 0.0 0.0 0.00 2.84 0.00 100 1013.4
20260906103003 21 0 0.0 0.0 0.00 2.84 0.00 100 1013.4
20260906102803 21 0 0.0 0.0 0.00 2.84 0.00 100 1013.5
20260906102603 21 0 0.0 0.0 0.00 2.84 0.00 100 1013.5
20260906102403 21 0 0.0 0.0 0.00 2.84 0.00 100 1013.5
20260906102203 21 0 0.0 0.0 0.00 2.84 0.00 100 1013.3
20260906102003 21 0 0.0 0.0 0.00 2.84 0.00 100 1013.3
20260906101824 21 0 0.0 0.0 0.00 2.84 0.00 100 1013.2
20260906101603 21 103 0.0 1.6 0.00 2.84 0.00 100 1013.2
20260906101403 21 103 0.0 1.6 0.00 2.84 0.00 100 1013.2
20260906101203 21 103 0.0 1.6 0.00 2.84 0.00 100 1013.1
20260906101003 21 103 0.0 1.6 0.00 2.84 0.00 100 1013.1
20260906100824 21 103 0.0 1.6 0.00 2.84 0.00 100 1013.1
20260906100603 21 0 0.0 0.0 0.00 2.84 0.00 100 1013.0
20260906100403 21 0 0.0 0.0 0.00 2.84 0.00 100 1013.0
20260906100203 21 0 0.0 0.0 0.00 2.84 0.00 100 1013.0
20260906100003 22 0 0.0 0.0 0.00 2.84 0.00 100 1013.0
20260906095803 22 0 0.0 0.0 0.00 2.84 0.00 100 1013.0
20260906095603 22 0 0.0 0.0 0.00 2.84 0.00 100 1013.0
20260906095403 22 0 0.0 0.0 0.00 2.84 0.00 100 1012.9
20260906095203 22 0 0.0 0.0 0.00 2.84 0.00 100 1012.9
20260906095003 22 0 0.0 0.0 0.00 2.84 0.00 100 1012.9
20260906094803 22 0 0.0 0.0 0.00 2.84 0.00 100 1012.8
20260906094604 22 0 0.0 0.0 0.00 2.84 0.00 100 1012.9
20260906094403 22 0 0.0 0.0 0.00 2.84 0.00 100 1012.9
20260906094224 22 0 0.0 0.0 0.00 2.84 0.00 100 1012.9
20260906094003 22 0 0.0 0.0 0.00 2.84 0.00 100 1012.9
20260906093803 22 0 0.0 0.0 0.00 2.84 0.00 100 1012.9
20260906093603 22 0 0.0 0.0 0.00 2.84 0.00 100 1012.8
20260906093424 22 0 0.0 0.0 0.00 2.84 0.00 100 1012.9
20260906093203 22 0 0.0 0.0 0.00 2.84 0.00 100 1012.8
20260906093003 22 0 0.0 0.0 0.00 2.84 0.00 100 1012.8
20260906092803 22 0 0.0 0.0 0.00 2.84 0.00 100 1012.8
20260906092624 22 0 0.0 0.0 0.00 2.84 0.00 100 1012.8
20260906092403 22 0 0.0 0.0 0.00 2.84 0.00 100 1012.8
20260906092224 22 0 0.0 0.0 0.00 2.84 0.00 100 1012.8
20260906092024 22 0 0.0 0.0 0.00 2.84 0.00 100 1012.8
20260906091803 21 0 0.0 0.0 0.00 2.84 0.00 100 1012.8
20260906091603 21 0 0.0 0.0 0.00 2.84 0.00 100 1012.7
20260906091403 21 0 0.0 0.0 0.00 2.84 0.00 100 1012.7
20260906091203 21 0 0.0 0.0 0.00 2.84 0.00 100 1012.7
20260906091003 21 0 0.0 0.0 0.00 2.84 0.00 100 1012.7
20260906090824 21 0 0.0 0.0 0.00 2.84 0.00 100 1012.7
20260906090603 21 0 0.0 0.0 0.00 2.84 0.00 100 1012.7
20260906090403 21 0 0.0 0.0 0.00 2.84 0.00 100 1012.6
20260906090203 21 0 0.0 0.0 0.00 2.84 0.00 100 1012.6
20260906090003 22 0 0.0 0.0 0.00 2.84 0.00 100 1012.6
20260906085803 22 0 0.0 0.0 0.00 2.84 0.00 100 1012.6
20260906085603 22 0 0.0 0.0 0.00 2.84 0.00 100 1012.6
20260906085403 22 0 0.0 0.0 0.00 2.84 0.00 100 1012.6
20260906085203 22 0 0.0 0.0 0.00 2.84 0.00 100 1012.5
20260906085003 22 0 0.0 0.0 0.00 2.84 0.00 100 1012.5
20260906084803 22 0 0.0 0.0 0.00 2.84 0.00 100 1012.4
20260906084624 22 0 0.0 0.0 0.00 2.84 0.00 100 1012.4
20260906084424 22 0 0.0 0.0 0.00 2.84 0.00 100 1012.4
20260906084203 22 0 0.0 0.0 0.00 2.84 0.00 100 1012.4
20260906084024 22 0 0.0 0.0 0.00 2.84 0.00 100 1012.4
20260906083803 22 0 0.0 0.0 0.00 2.84 0.00 100 1012.4
20260906083624 22 0 0.0 0.0 0.00 2.84 0.00 100 1012.4
20260906083403 22 0 0.0 0.0 0.00 2.84 0.00 100 1012.3
20260906083203 22 0 0.0 0.0 0.00 2.84 0.00 100 1012.3
20260906083024 22 0 0.0 0.0 0.00 2.84 0.00 100 1012.3
20260906082824 22 0 0.0 0.0 0.00 2.84 0.00 100 1012.3
20260906082603 22 0 0.0 0.0 0.00 2.84 0.00 100 1012.3
20260906082403 22 0 0.0 0.0 0.00 2.84 0.00 100 1012.3
20260906082203 22 0 0.0 0.0 0.00 2.84 0.00 100 1012.3
20260906082003 22 0 0.0 0.0 0.00 2.84 0.00 100 1012.3
20260906081803 22 0 0.0 0.0 0.00 2.84 0.00 100 1012.4
20260906081603 22 0 0.0 0.0 0.00 2.84 0.00 100 1012.3
20260906081403 22 0 0.0 0.0 0.00 2.84 0.00 100 1012.3
20260906081203 22 0 0.0 0.0 0.00 2.84 0.00 100 1012.3
20260906081003 22 0 0.0 0.0 0.00 2.84 0.00 100 1012.3
20260906080803 22 0 0.0 0.0 0.00 2.84 0.00 100 1012.3
20260906080603 22 0 0.0 0.0 0.00 2.84 0.00 100 1012.3
20260906080403 22 0 0.0 0.0 0.00 2.84 0.00 100 1012.3
20260906080203 22 0 0.0 0.0 0.00 2.84 0.00 100 1012.4
20260906080003 22 0 0.0 0.0 0.00 2.84 0.00 100 1012.4
20260906075803 22 0 0.0 0.0 0.00 2.84 0.00 100 1012.3
20260906075603 22 0 0.0 0.0 0.00 2.84 0.00 100 1012.3
20260906075403 22 0 0.0 0.0 0.00 2.84 0.00 100 1012.2
20260906075203 22 0 0.0 0.0 0.00 2.84 0.00 100 1012.2
20260906075003 22 0 0.0 0.0 0.00 2.84 0.00 100 1012.2
20260906074803 22 0 0.0 0.0 0.00 2.84 0.00 100 1012.1
20260906074603 22 0 0.0 0.0 0.00 2.84 0.00 100 1012.2
20260906074424 22 0 0.0 0.0 0.00 2.84 0.00 100 1012.3
20260906074203 22 0 0.0 0.0 0.00 2.84 0.00 100 1012.2
20260906074003 22 0 0.0 0.0 0.00 2.84 0.00 100 1012.3
20260906073803 22 0 0.0 0.0 0.00 2.84 0.00 100 1012.4
20260906073603 22 0 0.0 0.0 0.00 2.84 0.00 100 1012.4
20260906073403 22 0 0.0 0.0 0.00 2.84 0.00 100 1012.5
20260906073203 22 0 0.0 0.0 0.00 2.84 0.00 100 1012.5
20260906073003 22 0 0.0 0.0 0.00 2.84 0.00 100 1012.5
20260906072803 22 0 0.0 0.0 0.00 2.84 0.00 100 1012.5
20260906072624 22 0 0.0 0.0 0.00 2.84 0.00 100 1012.5
20260906072403 22 0 0.0 0.0 0.00 2.84 0.00 100 1012.5
20260906072203 22 0 0.0 0.0 0.00 2.84 0.00 100 1012.4
20260906072003 22 0 0.0 0.0 0.00 2.84 0.00 100 1012.5
20260906071803 22 0 0.0 0.0 0.00 2.84 0.00 100 1012.5
20260906071603 22 0 0.0 0.0 0.00 2.84 0.00 100 1012.4
20260906071403 22 0 0.0 0.0 0.00 2.84 0.00 100 1012.5
20260906071224 22 0 0.0 0.0 0.00 2.84 0.00 100 1012.6
20260906071003 22 103 0.0 1.6 0.00 2.84 0.00 100 1012.5
20260906070803 22 103 0.0 1.6 0.00 2.84 0.00 100 1012.5
20260906070603 22 103 0.0 1.6 0.00 2.84 0.00 100 1012.5
20260906070403 22 103 0.0 1.6 0.00 2.84 0.00 100 1012.5
20260906070203 22 103 0.0 1.6 0.00 2.84 0.00 100 1012.4
20260906070003 22 0 0.0 0.0 0.00 2.84 0.00 100 1012.4
20260906065803 22 0 0.0 0.0 0.00 2.84 0.00 100 1012.3
20260906065603 22 0 0.0 0.0 0.00 2.84 0.00 100 1012.3
20260906065403 22 0 0.0 0.0 0.00 2.84 0.00 100 1012.2
20260906065203 22 0 0.0 0.0 0.00 2.84 0.00 100 1012.2
20260906065003 22 0 0.0 0.0 0.00 2.84 0.00 100 1012.2
20260906064803 22 0 0.0 0.0 0.00 2.84 0.00 100 1012.1
20260906064603 22 0 0.0 0.0 0.00 2.84 0.00 100 1012.1
20260906064403 22 0 0.0 0.0 0.00 2.84 0.00 100 1012.1
20260906064203 22 0 0.0 0.0 0.00 2.84 0.00 100 1012.1
20260906064003 22 0 0.0 0.0 0.00 2.84 0.00 100 1012.1
20260906063803 22 0 0.0 0.0 0.00 2.84 0.00 100 1012.0
20260906063603 22 0 0.0 0.0 0.00 2.84 0.00 100 1012.0
20260906063424 22 0 0.0 0.0 0.00 2.84 0.00 100 1012.0
20260906063203 22 0 0.0 0.0 0.00 2.84 0.00 100 1012.0
20260906063003 22 0 0.0 0.0 0.00 2.84 0.00 100 1012.0
20260906062803 22 0 0.0 0.0 0.00 2.84 0.00 100 1012.0
20260906062603 22 0 0.0 0.0 0.00 2.84 0.00 100 1012.1
20260906062403 22 0 0.0 0.0 0.00 2.84 0.00 100 1012.1
20260906062203 22 0 0.0 0.0 0.00 2.84 0.00 100 1012.1
20260906062003 22 0 0.0 0.0 0.00 2.84 0.00 100 1012.1
20260906061824 22 0 0.0 0.0 0.00 2.84 0.00 100 1012.2
20260906061603 22 102 0.0 1.6 0.00 2.84 0.00 100 1012.2
20260906061424 22 102 0.0 1.6 0.00 2.84 0.00 100 1012.2
20260906061203 22 102 0.0 1.6 0.00 2.84 0.00 100 1012.2
20260906061003 22 102 0.0 1.6 0.00 2.84 0.00 100 1012.3
20260906060803 22 102 0.0 1.6 0.00 2.84 0.00 100 1012.3
20260906060603 22 0 0.0 0.0 0.00 2.84 0.00 100 1012.3
20260906060424 22 0 0.0 0.0 0.00 2.84 0.00 100 1012.3
20260906060203 22 0 0.0 0.0 0.00 2.84 0.00 100 1012.3
20260906060003 22 0 0.0 0.0 0.00 2.84 0.00 100 1012.3
20260906055803 22 0 0.0 0.0 0.00 2.84 0.00 100 1012.2
20260906055603 22 0 0.0 0.0 0.00 2.84 0.00 100 1012.3
20260906055403 22 0 0.0 0.0 0.00 2.84 0.00 100 1012.3
20260906055203 22 0 0.0 0.0 0.00 2.84 0.00 100 1012.4
20260906055003 22 0 0.0 0.0 0.00 2.84 0.00 100 1012.4
20260906054803 22 0 0.0 0.0 0.00 2.84 0.00 100 1012.4
20260906054603 22 0 0.0 0.0 0.00 2.84 0.00 100 1012.5
20260906054403 22 0 0.0 0.0 0.00 2.84 0.00 100 1012.5
20260906054224 22 0 0.0 0.0 0.00 2.84 0.00 100 1012.5
20260906054003 22 0 0.0 0.0 0.00 2.84 0.00 100 1012.5
20260906053803 22 0 0.0 0.0 0.00 2.84 0.00 100 1012.5
20260906053624 22 0 0.0 0.0 0.00 2.84 0.00 100 1012.5
20260906053424 22 0 0.0 0.0 0.00 2.84 0.00 100 1012.5
20260906053203 22 0 0.0 0.0 0.00 2.84 0.00 100 1012.5
20260906053003 22 0 0.0 0.0 0.00 2.84 0.00 100 1012.6
20260906052803 22 0 0.0 0.0 0.00 2.84 0.00 100 1012.6
20260906052624 22 0 0.0 0.0 0.00 2.84 0.00 100 1012.6
20260906052403 22 0 0.0 0.0 0.00 2.84 0.00 100 1012.7
20260906052203 22 0 0.0 0.0 0.00 2.84 0.00 100 1012.8
20260906052003 22 0 0.0 0.0 0.00 2.84 0.00 99 1012.8
20260906051803 22 0 0.0 0.0 0.00 2.84 0.00 99 1012.8
20260906051603 22 113 0.0 1.6 0.00 2.84 0.00 99 1012.8
20260906051403 22 113 0.0 1.6 0.00 2.84 0.00 100 1012.9
20260906051203 22 113 0.0 1.6 0.00 2.84 0.00 100 1012.9
20260906051003 22 113 0.0 1.6 0.00 2.84 0.00 100 1012.9
20260906050824 22 113 0.0 1.6 0.00 2.84 0.00 99 1012.9
20260906050603 22 0 0.0 0.0 0.00 2.84 0.00 99 1012.9
20260906050403 22 0 0.0 0.0 0.00 2.84 0.00 99 1012.9
20260906050203 22 0 0.0 0.0 0.00 2.84 0.00 99 1013.0
20260906050003 22 113 0.0 1.6 0.00 2.84 0.00 99 1013.0
20260906045803 22 113 0.0 1.6 0.00 2.84 2.84 99 1012.9
20260906045603 22 112 0.0 1.6 0.00 2.84 2.84 99 1012.9
20260906045403 22 112 0.0 1.6 0.00 2.84 2.84 99 1013.0
20260906045203 22 111 0.0 1.6 0.00 2.84 2.84 99 1013.0
20260906045003 22 108 0.0 1.6 0.00 2.84 2.84 99 1013.1
20260906044803 22 107 0.0 1.6 0.00 2.84 2.84 99 1013.0
20260906044603 22 105 0.0 1.6 0.00 2.84 2.84 99 1013.0
20260906044403 22 105 0.0 1.6 0.00 2.84 2.84 99 1013.0
20260906044203 22 103 0.0 1.6 0.00 2.84 2.84 99 1013.0
20260906044024 22 99 0.0 1.6 0.00 2.84 2.84 99 1013.0
20260906043826 22 99 0.0 1.6 0.00 2.84 2.84 99 1012.9
20260906043603 22 99 0.0 1.6 0.00 2.84 2.84 99 1012.9
20260906043424 22 99 0.0 1.6 0.00 2.84 2.84 99 1012.8
20260906043203 22 99 0.0 1.6 0.00 2.84 2.84 99 1012.9
20260906043024 22 99 0.0 1.6 0.00 2.84 2.84 99 1012.9
20260906042803 22 0 0.0 0.0 0.00 2.84 2.84 99 1012.9
20260906042603 22 0 0.0 0.0 0.00 2.84 2.84 99 1012.8
20260906042424 22 0 0.0 0.0 0.00 2.84 2.84 99 1012.8
20260906042224 22 0 0.0 0.0 0.00 2.84 2.84 99 1012.9
20260906042003 22 0 0.0 0.0 0.00 2.84 2.84 99 1013.0
20260906041803 22 0 0.0 0.0 0.00 2.84 2.84 98 1013.1
20260906041624 22 0 0.0 0.0 0.00 2.84 2.84 98 1013.1
20260906041403 22 0 1.6 0.0 0.18 2.84 2.84 98 1013.2
20260906041203 23 97 1.6 3.2 0.43 2.84 2.84 98 1013.2
20260906041003 23 98 1.6 3.2 0.66 2.84 2.84 98 1013.2
20260906040803 23 99 1.6 4.8 0.76 2.84 2.84 98 1013.1
20260906040603 23 101 1.6 4.8 0.76 2.84 2.84 97 1013.1
20260906040403 22 101 1.6 4.8 0.76 2.84 2.84 97 1013.1
20260906040203 22 101 1.6 4.8 0.76 2.84 2.84 97 1013.1
20260906040003 22 102 0.0 4.8 0.76 2.84 2.84 97 1013.1
20260906035803 22 103 0.0 4.8 0.76 2.84 2.84 97 1013.1
20260906035624 22 101 0.0 4.8 0.76 2.84 2.84 97 1013.1
20260906035403 22 100 0.0 3.2 0.76 2.84 2.84 98 1013.2
20260906035203 22 101 0.0 1.6 0.76 2.84 2.84 98 1013.2
20260906035003 22 103 1.6 3.2 0.76 2.84 2.84 97 1013.2
20260906034824 22 102 1.6 3.2 0.76 2.84 2.84 98 1013.1
20260906034603 22 89 1.6 3.2 0.76 2.84 2.84 97 1013.1
20260906034403 22 94 1.6 3.2 0.76 2.84 2.84 97 1013.0
20260906034203 22 101 3.2 3.2 0.76 2.84 2.84 97 1012.9
20260906034003 22 107 3.2 4.8 0.76 2.84 2.84 96 1012.8
20260906033803 22 110 3.2 4.8 0.76 2.84 2.84 96 1012.9
20260906033603 22 112 3.2 4.8 0.76 2.84 2.84 96 1012.9
20260906033403 22 113 4.8 8.0 0.76 2.84 2.84 96 1012.8
20260906033203 22 111 4.8 8.0 0.76 2.84 2.84 95 1012.8
20260906033024 22 110 6.4 8.0 0.76 2.84 2.84 95 1012.8
20260906032803 22 105 8.0 11.3 0.76 2.84 2.84 95 1012.8
20260906032603 22 102 8.0 17.7 0.76 2.84 2.84 95 1012.7
20260906032403 22 100 9.7 17.7 0.76 2.84 2.84 95 1012.8
20260906032224 23 95 9.7 17.7 0.76 2.84 2.84 96 1012.9
20260906032004 23 77 9.7 24.1 0.76 2.84 2.84 95 1013.0
20260906031803 23 72 8.0 24.1 0.76 2.84 2.84 95 1013.1
20260906031603 23 45 8.0 24.1 0.76 2.84 2.84 94 1013.1
20260906031403 23 27 6.4 24.1 0.58 2.67 2.67 94 1013.7
20260906031204 23 18 6.4 24.1 0.33 2.41 2.41 93 1013.6
20260906031024 23 30 6.4 20.9 0.10 2.18 2.18 93 1013.3
20260906030803 23 25 4.8 20.9 0.00 2.08 2.13 91 1013.6
20260906030603 23 39 4.8 16.1 0.00 2.08 2.08 93 1013.8
20260906030403 23 34 3.2 12.9 0.00 2.08 2.08 94 1014.2
20260906030203 23 32 3.2 12.9 0.00 2.08 2.08 94 1014.2
20260906030003 23 27 3.2 12.9 0.00 2.08 2.08 95 1014.3
20260906025803 23 25 3.2 12.9 0.00 2.08 2.08 95 1014.6
20260906025603 23 23 3.2 12.9 0.00 2.08 2.08 95 1014.4
20260906025403 23 30 3.2 8.0 0.00 2.08 2.08 95 1014.5
20260906025203 23 80 4.8 9.7 0.00 2.08 2.08 95 1013.6
20260906025003 23 96 4.8 11.3 0.00 2.08 2.08 95 1013.1
20260906024803 23 98 4.8 11.3 0.00 2.08 2.08 95 1012.8
20260906024603 23 98 4.8 11.3 0.00 2.08 2.08 95 1012.8
20260906024403 23 96 4.8 11.3 0.00 2.08 2.08 93 1013.0
20260906024203 23 96 4.8 11.3 0.00 2.08 2.08 93 1013.2
20260906024003 23 96 4.8 11.3 0.00 2.08 2.08 94 1013.3
20260906023804 23 93 4.8 11.3 0.00 2.08 2.08 95 1013.3
20260906023603 23 34 4.8 4.8 0.00 2.08 2.08 95 1013.1
20260906011004 30 286 1.6 35.4 0.03 0.03 0.03 74 1011.8
20260906010804 30 298 0.0 14.5 0.00 0.00 0.00 71 1011.2
20260906010625 31 295 0.0 12.9 0.00 0.00 0.00 70 1011.3
20260906010404 31 317 0.0 4.8 0.00 0.00 0.00 68 1011.2
20260906010204 31 0 0.0 0.0 0.00 0.00 0.00 68 1010.7
20260906010004 31 0 0.0 0.0 0.00 0.00 0.00 67 1010.5
20260906005804 31 145 1.6 1.6 0.00 0.00 0.00 67 1010.4
20260906005605 31 149 1.6 3.2 0.00 0.00 0.00 67 1010.5
20260906005404 31 152 1.6 3.2 0.00 0.00 0.00 67 1010.6
20260906005225 31 150 1.6 3.2 0.00 0.00 0.00 67 1010.6
20260906005004 31 152 0.0 3.2 0.00 0.00 0.00 67 1010.4
20260906004804 31 152 0.0 3.2 0.00 0.00 0.00 67 1010.3
20260906004604 31 153 0.0 3.2 0.00 0.00 0.00 69 1010.4
20260906004404 31 151 0.0 3.2 0.00 0.00 0.00 69 1010.5
20260906004204 31 167 0.0 3.2 0.00 0.00 0.00 69 1010.6
20260906004004 31 0 0.0 0.0 0.00 0.00 0.00 69 1010.6
20260906003804 31 0 0.0 0.0 0.00 0.00 0.00 69 1010.6
20260906003604 31 0 0.0 0.0 0.00 0.00 0.00 68 1010.7
20260906003404 31 0 0.0 0.0 0.00 0.00 0.00 68 1010.8
20260906003204 31 0 0.0 0.0 0.00 0.00 0.00 68 1010.8
20260906003004 31 0 0.0 0.0 0.00 0.00 0.00 68 1010.8
20260906002804 31 0 0.0 0.0 0.00 0.00 0.00 68 1010.8
20260906002625 31 0 0.0 0.0 0.00 0.00 0.00 68 1010.8
20260906002404 31 0 0.0 0.0 0.00 0.00 0.00 67 1010.9
20260906002204 31 91 0.0 1.6 0.00 0.00 0.00 67 1010.9
20260906002004 31 91 0.0 1.6 0.00 0.00 0.00 68 1011.0
20260906001804 31 91 0.0 1.6 0.00 0.00 0.00 67 1011.1
20260906001625 31 91 0.0 1.6 0.00 0.00 0.00 67 1011.1
20260906001404 31 91 0.0 1.6 0.00 0.00 0.00 67 1011.0
20260906001204 32 0 0.0 0.0 0.00 0.00 0.00 67 1011.0
20260906001004 32 0 0.0 0.0 0.00 0.00 0.00 66 1011.1
20260906000804 32 0 0.0 0.0 0.00 0.00 0.00 66 1011.1
20260906000604 32 91 0.0 1.6 0.00 0.00 0.00 66 1011.1
20260906000404 32 91 0.0 1.6 0.00 0.00 0.00 66 1011.1
20260906000204 32 91 0.0 1.6 0.00 0.00 0.00 65 1011.2
20260906000004 32 91 0.0 1.6 0.00 0.00 0.00 65 1011.1
20260905235804 32 91 0.0 1.6 0.00 0.00 0.00 65 1011.2
20260905235604 32 91 0.0 1.6 0.00 0.00 0.00 64 1011.1
20260905235425 32 91 0.0 1.6 0.00 0.00 0.00 64 1011.1
20260905235204 32 91 0.0 1.6 0.00 0.00 0.00 64 1011.0
20260905235025 32 91 1.6 1.6 0.00 0.00 0.00 64 1011.0
20260905234804 32 90 1.6 3.2 0.00 0.00 0.00 64 1011.0
20260905234604 32 99 1.6 3.2 0.00 0.00 0.00 63 1011.0
20260905234425 33 106 1.6 4.8 0.00 0.00 0.00 63 1011.0
20260905234204 33 113 1.6 4.8 0.00 0.00 0.00 63 1011.0
20260905234004 33 114 1.6 4.8 0.00 0.00 0.00 63 1011.1
20260905233825 33 115 1.6 4.8 0.00 0.00 0.00 62 1011.1
20260905233604 33 119 1.6 4.8 0.00 0.00 0.00 62 1011.0
20260905233404 33 122 1.6 4.8 0.00 0.00 0.00 62 1010.9
20260905233225 33 115 1.6 3.2 0.00 0.00 0.00 62 1010.9
20260905233025 33 106 1.6 3.2 0.00 0.00 0.00 62 1011.0
20260905232804 33 103 0.0 3.2 0.00 0.00 0.00 62 1010.9
20260905232604 34 102 0.0 3.2 0.00 0.00 0.00 62 1010.9
20260905232404 34 98 0.0 3.2 0.00 0.00 0.00 61 1010.9
20260905232204 34 90 0.0 3.2 0.00 0.00 0.00 61 1010.9
20260905232004 34 45 0.0 1.6 0.00 0.00 0.00 61 1011.0
20260905231804 34 16 0.0 1.6 0.00 0.00 0.00 61 1011.0
20260905231604 34 14 0.0 1.6 0.00 0.00 0.00 60 1011.0
20260905231404 34 14 1.6 1.6 0.00 0.00 0.00 60 1011.0
20260905231225 35 25 1.6 1.6 0.00 0.00 0.00 60 1011.0
20260905231025 35 98 1.6 8.0 0.00 0.00 0.00 60 1011.0
20260905230804 35 98 1.6 8.0 0.00 0.00 0.00 59 1011.0
20260905230604 35 91 1.6 8.0 0.00 0.00 0.00 59 1011.0
20260905230404 35 91 1.6 8.0 0.00 0.00 0.00 59 1010.9
20260905230204 35 85 0.0 8.0 0.00 0.00 0.00 58 1010.8
20260905230004 35 66 0.0 8.0 0.00 0.00 0.00 57 1010.8
20260905225804 35 44 0.0 3.2 0.00 0.00 0.00 56 1010.7
20260905225604 35 42 0.0 3.2 0.00 0.00 0.00 56 1010.7
20260905225404 35 41 0.0 3.2 0.00 0.00 0.00 56 1010.7
20260905225204 35 42 0.0 3.2 0.00 0.00 0.00 56 1010.7
20260905225004 35 28 0.0 3.2 0.00 0.00 0.00 55 1010.7
20260905224804 35 10 0.0 1.6 0.00 0.00 0.00 55 1010.7
20260905224604 36 19 0.0 1.6 0.00 0.00 0.00 54 1010.7
20260905224404 36 25 0.0 1.6 0.00 0.00 0.00 54 1010.7
20260905224204 36 349 0.0 1.6 0.00 0.00 0.00 54 1010.7
20260905224004 36 344 0.0 1.6 0.00 0.00 0.00 53 1010.6
20260905223825 36 315 0.0 1.6 0.00 0.00 0.00 53 1010.6
20260905223604 36 277 0.0 1.6 0.00 0.00 0.00 53 1010.6
20260905223404 36 282 0.0 3.2 0.00 0.00 0.00 53 1010.7
20260905223204 36 283 0.0 4.8 0.00 0.00 0.00 52 1010.7
20260905223004 36 287 1.6 4.8 0.00 0.00 0.00 52 1010.8
20260905222804 36 285 1.6 4.8 0.00 0.00 0.00 52 1010.8
20260905222625 36 283 1.6 4.8 0.00 0.00 0.00 52 1010.7
20260905222425 36 284 1.6 8.0 0.00 0.00 0.00 52 1010.7
20260905222204 36 284 1.6 8.0 0.00 0.00 0.00 52 1010.7
20260905222025 36 281 1.6 8.0 0.00 0.00 0.00 52 1010.8
20260905221804 36 279 1.6 8.0 0.00 0.00 0.00 52 1010.7
20260905221625 36 280 0.0 8.0 0.00 0.00 0.00 51 1010.8
20260905221404 36 279 0.0 6.4 0.00 0.00 0.00 51 1010.7
20260905221204 36 282 0.0 6.4 0.00 0.00 0.00 51 1010.8
20260905221004 36 283 0.0 6.4 0.00 0.00 0.00 51 1010.8
20260905220804 36 292 0.0 6.4 0.00 0.00 0.00 52 1010.7
20260905220604 36 26 0.0 4.8 0.00 0.00 0.00 54 1010.7
20260905220404 36 38 0.0 1.6 0.00 0.00 0.00 53 1010.6
20260905220204 36 37 0.0 3.2 0.00 0.00 0.00 54 1010.5
20260905220004 36 34 0.0 3.2 0.00 0.00 0.00 53 1010.5
20260905215804 36 34 0.0 3.2 0.00 0.00 0.00 53 1010.5
20260905215604 36 33 0.0 3.2 0.00 0.00 0.00 53 1010.5
20260905215425 36 26 0.0 3.2 0.00 0.00 0.00 53 1010.6
20260905215204 35 309 0.0 1.6 0.00 0.00 0.00 53 1010.6
20260905215025 35 349 0.0 1.6 0.00 0.00 0.00 54 1010.6
20260905214825 35 296 0.0 1.6 0.00 0.00 0.00 54 1010.6
20260905214604 35 295 0.0 1.6 0.00 0.00 0.00 55 1010.6
20260905214404 35 292 0.0 1.6 0.00 0.00 0.00 55 1010.7
20260905214204 36 286 0.0 1.6 0.00 0.00 0.00 55 1010.7
20260905214004 36 285 0.0 1.6 0.00 0.00 0.00 55 1010.7
20260905213804 36 340 0.0 3.2 0.00 0.00 0.00 55 1010.7
20260905213604 36 324 0.0 3.2 0.00 0.00 0.00 55 1010.7
20260905213404 36 324 0.0 3.2 0.00 0.00 0.00 55 1010.8
20260905213204 36 8 0.0 3.2 0.00 0.00 0.00 55 1010.8
20260905213004 36 31 0.0 3.2 0.00 0.00 0.00 54 1010.9
20260905212804 36 36 0.0 3.2 0.00 0.00 0.00 54 1010.9
20260905212604 36 44 0.0 4.8 0.00 0.00 0.00 55 1010.9
20260905212404 36 45 0.0 4.8 0.00 0.00 0.00 55 1010.9
20260905212204 36 43 0.0 4.8 0.00 0.00 0.00 54 1010.8
20260905212004 36 50 0.0 4.8 0.00 0.00 0.00 55 1010.8
20260905211804 36 49 0.0 4.8 0.00 0.00 0.00 54 1010.8
20260905211604 36 52 0.0 1.6 0.00 0.00 0.00 54 1010.9
20260905211404 36 47 0.0 1.6 0.00 0.00 0.00 54 1010.8
20260905211204 36 44 0.0 1.6 0.00 0.00 0.00 54 1010.8
20260905211004 36 39 0.0 1.6 0.00 0.00 0.00 54 1010.9
20260905210803 36 39 0.0 1.6 0.00 0.00 0.00 54 1010.9
20260905210604 36 37 1.6 3.2 0.00 0.00 0.00 54 1010.9
20260905210404 36 41 1.6 3.2 0.00 0.00 0.00 54 1010.9
20260905210204 36 44 1.6 3.2 0.00 0.00 0.00 53 1010.9
20260905210004 36 43 1.6 3.2 0.00 0.00 0.00 52 1010.9